Location: Cerbedi�res
(48.2182°N, 1.4849°W)
Time: 00:32:45
(UTC+00:00)

USA 234 - Pass Details

Date: 03 March 2021
Orbit: 1102 x 1105 km, 123.0° (Epoch: 13 April)

Event Time Altitude Azimuth Distance (km) Brightness Sun altitude
Exits shadow 19:39:57 21° 65° (ENE) 2,275 4.5 -18.5°
Maximum altitude 19:44:28 58° 138° (SE) 1,271 3.3 -19.2°
Drops below altitude 10° 19:50:53 10° 216° (SW) 2,955 5.8 -20.2°
Sets 19:53:25 0° 221° (SW) 3,910 6.5 -20.7°
